Volver al catálogo

FENGYUN 1C DEB

ActivoSSO
NORAD 31837·DEBRIS·🇨🇳 China

Lanzado May 10, 1999 desde Taiyuan Satellite Launch Center

Loading…

Próximos Pases (próximas 24 horas)

TLE

EnvejeciendoSource: Space-Track

Época: Sep 6, 2026, 12:05 UTC

1 31837U 99025CJB 26249.50388274  .00004953  00000-0  52255-3 0  9990
2 31837  98.0815 334.1238 0084932 224.8248 134.6086 14.87132345 23264

Sigue FENGYUN 1C DEB en tiempo real con AllMySat

Download on the App Store